Regional Weather Roundup
Issued by NWS Nashville, TN

Home | Current Version | Previous Version | Text Only | Print | Product List | Glossary On
Versions: 1 2 3 4 5 6 7 8 9 10 11 12 13 14 15 16 17 18 19 20 21 22 23 24 25 26 27 28 29 30 31 32 33 34 35 36 37 38 39 40 41 42 43 44 45 46 47 48 49 50
235
ASUS44 KOHX 060110
RWROHX
MIDDLE TENNESSEE HOURLY WEATHER ROUNDUP
NATIONAL WEATHER SERVICE NASHVILLE TN
700 PM CST MON DEC 05 2016

NOTE: "FAIR" INDICATES FEW OR NO CLOUDS BELOW 12,000 FEET WITH
NO SIGNIFICANT WEATHER AND/OR OBSTRUCTIONS TO VISIBILITY.

* THESE REPORTS ARE NOT UNDER NWS QUALITY CONTROL AND MAY NOT
  REPORT WEATHER SUCH AS PRECIPITATION AND FOG.


TNZ005>011-023>034-057-059-062>066-078-080-060200
...NORTHERN MIDDLE TENNESSEE...

CITY           SKY/WX    TMP DP  RH WIND       PRES   REMARKS
CLARKSVILLE    CLOUDY    43  39  86 E7        29.87F
CROSSVILLE     CLOUDY    47  45  93 E8        29.87F
LEBANON        CLOUDY    46  44  93 CALM      29.87R
NASHVILLE      CLOUDY    48  43  82 NE7       29.89R
PORTLAND       CLOUDY    45  41  87 E6        29.88S
SMYRNA         CLOUDY    47  45  93 N3        29.89R
SPRINGFIELD    CLOUDY    45  41  87 NE6       29.86F
WEST NASHVILLE CLOUDY    45  43  93 E6        29.86F
$$
TNZ056-058-060-061-075>077-079-093>097-060200
...SOUTHERN MIDDLE TENNESSEE...

CITY           SKY/WX    TMP DP  RH WIND       PRES   REMARKS
COLUMBIA         N/A    N/A N/A N/A NE6       29.81F
FAYETTEVILLE   MOCLDY    50  50 100 N8        29.82F
MCMINNVILLE    CLOUDY    48  48 100 NE5       29.86R
MURFREESBORO   CLOUDY    48  46  93 CALM      29.86F
SHELBYVILLE    CLOUDY    48  48 100 CALM      29.86F
TULLAHOMA      CLOUDY    48  48 100 N5        29.86R
WINCHESTER     PTCLDY    50  48  93 SE12      29.82F
$$


...KEY TO REMARKS...
VSB - VISIBILITY IN MILES
WCI - WIND CHILL INDEX
HX  - HEAT INDEX





USA.gov is the U.S. government's official web portal to all federal, state and local government web resources and services.